This is the latest recevied weather packets stored in our database for station/object KB3GVC-13. If no packets are shown the sender has not sent any weather packets the latest 10 day(s).
| Time | Temp. | Humidity | Pressure | Rain* | Wind** | Luminosity | Snow |
|---|---|---|---|---|---|---|---|
| 1777851816 | 14.44° C | 37% | 1014.6 hPa | 0 mm | - | - | - |
| 1777851513 | 14.44° C | 37% | 1014.6 hPa | 0 mm | - | - | - |
| 1777851209 | 15° C | 37% | 1014.5 hPa | 0 mm | - | - | - |
| 1777850906 | 15° C | 35% | 1014.3 hPa | 0 mm | - | - | - |
| 1777850603 | 15.56° C | 34% | 1014.1 hPa | 0 mm | - | - | - |
| 1777850301 | 15.56° C | 34% | 1014.3 hPa | 0 mm | - | - | - |
| 1777849998 | 16.11° C | 34% | 1014.4 hPa | 0 mm | - | - | - |
| 1777849694 | 16.11° C | 33% | 1014.2 hPa | 0 mm | - | - | - |
| 1777849391 | 16.11° C | 32% | 1014.2 hPa | 0 mm | - | - | - |
| 1777849089 | 16.11° C | 32% | 1014.3 hPa | 0 mm | - | - | - |
| 1777848784 | 16.67° C | 32% | 1014.2 hPa | 0 mm | - | - | - |
| 1777848481 | 16.11° C | 32% | 1014.3 hPa | 0 mm | - | - | - |
| 1777848178 | 16.11° C | 32% | 1014.2 hPa | 0 mm | - | - | - |
| 1777847875 | 16.11° C | 32% | 1014.4 hPa | 0 mm | - | - | - |
| 1777847573 | 16.67° C | 32% | 1014.2 hPa | 0 mm | - | - | - |
| 1777847269 | 16.67° C | 32% | 1014.3 hPa | 0 mm | - | - | - |
| 1777846967 | 16.67° C | 31% | 1014.1 hPa | 0 mm | - | - | - |
| 1777846665 | 16.67° C | 31% | 1014.4 hPa | 0 mm | - | - | - |
| 1777846363 | 17.22° C | 31% | 1014.3 hPa | 0 mm | - | - | - |
| 1777846059 | 16.67° C | 31% | 1014.4 hPa | 0 mm | - | - | - |
| 1777845756 | 16.67° C | 31% | 1014.2 hPa | 0 mm | - | - | - |
| 1777845453 | 16.67° C | 30% | 1014.3 hPa | 0 mm | - | - | - |
| 1777845150 | 16.67° C | 32% | 1014.4 hPa | 0 mm | - | - | - |
| 1777844848 | 16.11° C | 31% | 1014.3 hPa | 0 mm | - | - | - |
| 1777844544 | 16.67° C | 31% | 1014.5 hPa | 0 mm | - | - | - |
* Rain latest hour (hover to see other rain measurements)
** Current wind speed in m/s (hover to see current wind gust speed)